Location: *
(2.7500°S, 66.6833°W)
Time: 04:33:17
(UTC+00:00)

IGS 5A - Pass Details

Date: 24 May 2024
Orbit: 572 x 575 km, 97.4° (Epoch: 06 April)

Event Time Altitude Azimuth Distance (km) Brightness Sun altitude
Exits shadow 23:21:07 - 174° (S) 2,719 6.6 -14.4°
Reaches altitude 10° 23:23:08 10° 177° (S) 1,877 5.8 -14.8°
Maximum altitude 23:27:10 65° 259° (WSW) 630 3.8 -15.8°
Drops below altitude 10° 23:31:10 10° 341° (NNW) 1,866 6.6 -16.7°
Sets 23:33:19 0° 344° (NNW) 2,760 7.4 -17.2°
